CW3467 Sant Marti de Canals ES current weather conditions

sailwx.info

Wind from 147

Air temperature 19.4° C
Dewpoint 13.8° C

Last reported at 2019-Sep-16 21:00 UTC.
Time now 2019-Sep-16 22:13 UTC

Location: N 42°14' E 000°59'.
View on Google Maps.

See reports from other nearby stations

  
Tides and Currents Weather Stations Pressure Air Temp Water Temp Dewpoint Dewpoint Depression Visibility Wind Speed Wind Dir Waves Ship Positions
date/time (UTC)wind fromknots sea level pressurealtimeterstation pressurevisibilityair tempwater tempwave heightnotes
2019-Sep-16 21:00 147 19.4
2019-Sep-16 20:45 120 20.0
2019-Sep-16 20:17 085 0 gusting 1 20.0
2019-Sep-16 20:01 154 20.6
2019-Sep-16 19:47 075 0 gusting 1 20.6
2019-Sep-16 19:30 089 20.0
2019-Sep-16 19:15 103 0 gusting 1 20.0
2019-Sep-16 19:00 076 20.6
2019-Sep-16 18:45 077 20.6
2019-Sep-16 18:31 045 20.6
2019-Sep-16 18:15 085 21.1
2019-Sep-16 18:00 085 21.7
2019-Sep-16 17:45 077 1 gusting 2 21.7
2019-Sep-16 17:33 079 0 gusting 2 21.1
2019-Sep-16 17:16 209 21.1
2019-Sep-16 17:02 046 21.1
2019-Sep-16 16:46 025 2 gusting 4 21.1
2019-Sep-16 16:31 044 1 gusting 6 21.1
2019-Sep-16 16:15 070 1 gusting 4 22.2
2019-Sep-16 16:00 044 0 gusting 6 22.8
2019-Sep-16 15:46 098 5 gusting 7 23.9
2019-Sep-16 15:30 136 6 gusting 9 26.1
2019-Sep-16 15:15 155 1 gusting 6 26.7
2019-Sep-16 15:00 135 3 gusting 9 27.2
2019-Sep-16 14:45 200 2 gusting 10 28.3
2019-Sep-16 14:30 206 2 gusting 7 28.3
2019-Sep-16 14:16 140 3 gusting 7 28.9
2019-Sep-16 14:01 221 2 gusting 7 28.9
2019-Sep-16 13:45 231 0 gusting 6 28.3
2019-Sep-16 13:30 253 2 gusting 6 28.9
2019-Sep-16 13:15 238 4 gusting 9 28.3
2019-Sep-16 13:00 051 2 gusting 6 28.3
2019-Sep-16 12:47 200 1 gusting 7 27.8
2019-Sep-16 12:30 145 2 gusting 6 28.3
2019-Sep-16 12:15 219 0 gusting 5 28.3
2019-Sep-16 12:00 195 1 gusting 6 28.3
2019-Sep-16 11:45 248 1 gusting 5 28.3
2019-Sep-16 11:31 234 1 gusting 6 28.3
2019-Sep-16 11:16 193 1 gusting 4 27.8
2019-Sep-16 11:01 198 1 gusting 3 27.8
2019-Sep-16 10:46 198 26.7
2019-Sep-16 10:30 240 0 gusting 3 25.6
2019-Sep-16 10:15 280 26.1
2019-Sep-16 10:00 211 25.6
2019-Sep-16 09:45 221 0 gusting 2 25.0
2019-Sep-16 09:32 195 24.4
2019-Sep-16 09:16 210 0 gusting 1 23.3
2019-Sep-16 09:01 215 22.8
2019-Sep-16 08:46 220 22.2
2019-Sep-16 08:30 158 21.7
2019-Sep-16 08:15 211 20.6
2019-Sep-16 08:00 220 19.4
2019-Sep-16 07:45 209 20.0
2019-Sep-16 07:30 208 20.6
2019-Sep-16 07:17 208 19.4
2019-Sep-16 07:01 212 17.8
2019-Sep-16 06:46 212 16.7
2019-Sep-16 06:31 136 16.1
2019-Sep-16 06:15 148 16.1
2019-Sep-16 06:01 137 16.1
2019-Sep-16 05:45 138 16.1
2019-Sep-16 05:30 134 16.1
2019-Sep-16 05:15 129 16.1
2019-Sep-16 05:00 129 16.1
2019-Sep-16 04:45 132 16.1
2019-Sep-16 04:31 142 16.1
2019-Sep-16 04:17 131 16.1
2019-Sep-16 04:00 138 16.1
2019-Sep-16 03:45 141 0 gusting 2 16.1
2019-Sep-16 03:30 126 0 gusting 2 16.1
2019-Sep-16 03:15 147 16.7
2019-Sep-16 03:00 103 2 gusting 3 16.7
2019-Sep-16 02:45 148 16.7
2019-Sep-16 02:30 118 16.7
2019-Sep-16 02:15 088 16.7
2019-Sep-16 02:02 111 0 gusting 2 16.7
2019-Sep-16 01:46 127 16.7
2019-Sep-16 01:31 077 16.7
2019-Sep-16 01:15 079 0 gusting 1 17.2
2019-Sep-16 01:00 115 17.2
2019-Sep-16 00:45 115 17.2
2019-Sep-16 00:30 154 17.8
2019-Sep-16 00:15 013 17.8
2019-Sep-16 00:00 013 17.8
2019-Sep-15 23:48 011 17.8
2019-Sep-15 23:32 127 17.8
2019-Sep-15 23:15 127 18.3
2019-Sep-15 23:01 131 18.9
2019-Sep-15 22:45 101 19.4
2019-Sep-15 22:30 113 19.4
2019-Sep-15 22:16 006 19.4
2019-Sep-15 22:00 004 19.4
2019-Sep-15 21:45 326 20.0
2019-Sep-15 21:30 106 1 gusting 4 20.6
2019-Sep-15 21:15 091 1 gusting 2 20.0
2019-Sep-15 21:00 050 21.1
2019-Sep-15 20:46 048 21.7
2019-Sep-15 20:31 046 22.2
2019-Sep-15 20:16 321 4 gusting 7 22.2
2019-Sep-15 20:00 326 22.2
2019-Sep-15 19:46 309 22.8
2019-Sep-15 19:30 131 1 gusting 9 23.9
2019-Sep-15 19:15 110 5 gusting 7 23.9
2019-Sep-15 19:00 120 3 gusting 6 23.9
2019-Sep-15 18:45 082 0 gusting 4 23.9
2019-Sep-15 18:30 114 4 gusting 7 24.4
2019-Sep-15 18:15 099 2 gusting 4 25.0
2019-Sep-15 18:02 098 1 gusting 3 25.6
2019-Sep-15 17:46 102 1 gusting 4 26.1
2019-Sep-15 17:31 100 2 gusting 4 26.7
2019-Sep-15 17:16 028 26.1
2019-Sep-15 17:00 124 2 gusting 5 26.7
2019-Sep-15 16:45 173 5 gusting 10 26.7
2019-Sep-15 16:31 136 6 gusting 13 27.2
2019-Sep-15 16:15 135 4 gusting 11 27.8
2019-Sep-15 16:00 132 6 gusting 11 28.3
2019-Sep-15 15:45 179 5 gusting 10 28.3
2019-Sep-15 15:30 166 6 gusting 9 28.3
2019-Sep-15 15:17 191 6 gusting 12 28.3
2019-Sep-15 15:02 114 6 gusting 12 28.3
2019-Sep-15 14:46 151 7 gusting 13 27.8
2019-Sep-15 14:31 197 6 gusting 12 28.9
2019-Sep-15 14:16 167 5 gusting 13 29.4
2019-Sep-15 14:01 139 2 gusting 6 28.9
2019-Sep-15 13:45 014 1 gusting 4 28.3
2019-Sep-15 13:30 263 2 gusting 6 28.3
2019-Sep-15 13:15 233 2 gusting 6 28.3
2019-Sep-15 13:00 198 0 gusting 4 28.3
2019-Sep-15 12:47 276 0 gusting 5 27.8
2019-Sep-15 12:31 243 0 gusting 2 28.3
2019-Sep-15 12:16 268 0 gusting 2 27.8
2019-Sep-15 12:01 269 27.2
2019-Sep-15 11:46 172 0 gusting 3 26.7
2019-Sep-15 11:30 221 25.6
2019-Sep-15 11:15 203 1 gusting 3 25.6
2019-Sep-15 11:00 191 25.0
2019-Sep-15 10:46 210 23.9
2019-Sep-15 10:31 195 1 gusting 4 23.9
2019-Sep-15 10:16 233 0 gusting 3 22.8
2019-Sep-15 10:02 195 1 gusting 3 22.2
2019-Sep-15 09:45 218 22.2
2019-Sep-15 09:31 123 21.7
2019-Sep-15 09:15 198 21.1
2019-Sep-15 09:00 188 0 gusting 3 20.0
2019-Sep-15 08:45 267 18.9
2019-Sep-15 08:30 202 18.9
2019-Sep-15 08:17 207 19.4
2019-Sep-15 08:00 253 18.9
2019-Sep-15 07:46 264 18.3
2019-Sep-15 07:30 169 17.8
2019-Sep-15 07:15 130 16.7
2019-Sep-15 07:00 130 16.1
2019-Sep-15 06:45 113 15.6
2019-Sep-15 06:30 113 15.6
2019-Sep-15 06:15 113 15.6
2019-Sep-15 06:02 124 15.6
2019-Sep-15 05:46 105 15.6
2019-Sep-15 05:31 135 15.6
2019-Sep-15 05:16 314 15.6
2019-Sep-15 05:01 298 16.1
2019-Sep-15 04:45 020 16.7
2019-Sep-15 04:30 028 0 gusting 6 16.7
2019-Sep-15 04:15 069 0 gusting 3 16.1
2019-Sep-15 04:00 032 16.1
2019-Sep-15 03:46 084 16.1
2019-Sep-15 03:31 321 16.1
2019-Sep-15 03:16 207 16.7
2019-Sep-15 03:01 297 16.1
2019-Sep-15 02:46 165 16.7
2019-Sep-15 02:31 037 1 gusting 5 16.1
2019-Sep-15 02:15 304 1 gusting 4 16.7
2019-Sep-15 02:00 332 16.7
2019-Sep-15 01:45 132 3 gusting 9 16.7
2019-Sep-15 01:30 041 16.7
2019-Sep-15 01:16 148 17.2
2019-Sep-15 01:01 335 0 gusting 4 17.2
2019-Sep-15 00:46 130 2 gusting 5 17.2
2019-Sep-15 00:31 094 3 gusting 5 17.2
2019-Sep-15 00:15 098 0 gusting 3 17.2
2019-Sep-15 00:00 203 17.2
2019-Sep-14 23:45 147 3 gusting 6 17.8
2019-Sep-14 23:30 053 3 gusting 10 19.4
2019-Sep-14 23:15 051 1 gusting 8 18.9
2019-Sep-14 23:02 075 1 gusting 9 18.3
2019-Sep-14 22:46 119 3 gusting 6 18.3
2019-Sep-14 22:30 013 18.9
2019-Sep-14 22:16 359 1 gusting 5 19.4
2019-Sep-14 22:00 087 1 gusting 4 18.9